Regional Weather Roundup
Issued by NWS

Home | Current Version | Previous Version | Text Only | Print | Product List | Glossary On
Versions: 1 2 3 4 5 6 7 8 9 10 11 12 13 14 15 16 17 18 19 20 21 22 23 24 25 26 27
000
ASUS44 KJAN 170810
RWRMS

MISSISSIPPI HOURLY WEATHER ROUNDUP
NATIONAL WEATHER SERVICE JACKSON MS
300 AM CDT TUE OCT 17 2017

NOTE: "FAIR: INDICATES FEW OR NO CLOUDS BELOW 12,000 FEET WITH NO
SIGNIFICANT WEATHER AND/OR OBSTRUCTIONS TO VISIBILITY.

MSZ001>002-007>008-010>013-018>021-025>028-034>036-170900-
NORTHWEST MISSISSIPPI

CITY           SKY/WX    TMP DP  RH WIND       PRES   REMARKS
BATESVILLE     FAIR      41  40  93 CALM      30.29F
CLARKSDALE       N/A     45  43  93 CALM      30.30F
CLEVELAND      FAIR      45  43  95 N5        30.28F
GREENWOOD      LGT RAIN  42  41  96 N3        30.27S
GREENVILLE     CLEAR     45  39  79 NE7       30.27F
OXFORD         FAIR      48  41  76 NE7       30.29F
TUNICA           N/A    N/A N/A N/A CALM      30.31F
WINONA         FAIR      46  44  91 N5        30.26S
$$

MSZ003>006-009-014>017-022>024-029>033-037>039-170900-
NORTHEAST MISSISSIPPI

CITY           SKY/WX    TMP DP  RH WIND       PRES   REMARKS
COLUMBUS AFB   CLEAR     46  45  96 NW3       30.25S
CORINTH        FAIR      43  41  93 CALM      30.29F
GOLDN TRIANGLE CLEAR     46  44  93 N6        30.26S
STARKVILLE     FAIR      45  43  93 CALM      30.27S
TUPELO         CLEAR     45  41  86 N8        30.28S
$$

MSZ040-058-170900-
CENTRAL MISSISSIPPI

CITY           SKY/WX    TMP DP  RH WIND       PRES   REMARKS
JACKSON INTL   PTCLDY    53  45  74 NE6       30.23S
JACKSON HAWKNS CLEAR     53  45  74 NE6       30.23F
MADISON        FAIR      45  43  93 CALM      30.23F
MERIDIAN KEY   CLEAR     52  46  80 NE7       30.21F
MERIDIAN NAS   CLEAR     52  45  77 N6        30.22
RAYMOND        FAIR      46  45  93 CALM      30.23F
VICKSBURG VKS  SUNNY     46  46 100 CALM      30.25F
$$

MSZ059>079-170900-
SOUTH MISSISSIPPI

CITY           SKY/WX    TMP DP  RH WIND       PRES   REMARKS
HATTIESBURG    CLEAR     52  48  86 N3        30.19F
LAUREL         FAIR      49  49  99 N3        30.20F
MCCOMB         CLEAR     53  44  71 N8        30.18F
NATCHEZ        CLEAR     47  44  90 N5        30.23F
PINE BELT      PTCLDY    49  46  90 N8        30.19F
$$

MSZ080>082-170900-
COASTAL MISSISSIPPI

CITY           SKY/WX    TMP DP  RH WIND       PRES   REMARKS
BILOXI         CLEAR     57  49  74 NE10      30.13F
PASCAGOULA     PTCLDY    55  48  77 N8        30.13F
GULFPORT       CLEAR     57  48  72 N7        30.14S
$$

LAZ007>009-015>016-023>026-170900-
NORTHEAST LOUISIANA

CITY           SKY/WX    TMP DP  RH WIND       PRES   REMARKS
BASTROP        FAIR      44  43  97 CALM      30.27F
TALLULAH/VBURG CLEAR     48  45  89 N9        30.25F
VIDALIA          N/A    N/A N/A N/A MISG      30.22F
$$




USA.gov is the U.S. government's official web portal to all federal, state and local government web resources and services.